User: anonymous   Login
Location: Berbisdorf
(50.7638°N, 12.9442°E)
Time: 12:05:19
(UTC+00:00)
Language:

STARLINK-1313 - Orbit

View from above orbital plane
View from above orbital plane
View from above satellite
View from above satellite

Ground track
Ground track

The orbit data is extracted from the following two-line orbital elements,

1 45364U 20019E   20227.25001157 -.00030816  00000-0 -21045-2 0  9992
2 45364  52.9905 265.1361 0001292  85.5057 281.2043 15.05588802 23661
Epoch (UTC): 14 August 2020 06:00:01
Eccentricity: 0.0001292
inclination: 52.9905°
perigee height: 549 km
apogee height: 550 km
right ascension of ascending node: 265.1361°
argument of perigee: 85.5057°
revolutions per day: 15.05588802
mean anomaly at epoch: 281.2043°
orbit number at epoch: 2366

The dashed part of the orbit path shows where the satellite is in the earth's shadow,  

DLR